Location: Moscow
(55.7500°N, 37.5830°E)
Time: 11:23:15
(UTC+03:00)

Explorer 7 - Pass Details

Date: 04 December 2021
Orbit: 483 x 674 km, 50.3° (Epoch: 19 January)

Event Time Altitude Azimuth Distance (km) Brightness Sun altitude
Rises 11:37:30 0° 272° (W) 2,644 10.2 11.4°
Reaches altitude 10° 11:40:28 10° 249° (WSW) 1,720 9.6 11.5°
Maximum altitude 11:42:45 15° 213° (SSW) 1,404 9.8 11.6°
Drops below altitude 10° 11:44:59 10° 176° (S) 1,679 12.5 11.6°
Sets 11:47:49 0° 153° (SSE) 2,542 11.7 11.7°
